USTRANSCOM 7560


ETAR
Ramstein Air Force Base
Ramstein, DE
BIKF
Keflavík International Airport
Reykjavík, IS

Activity Log

Date Flight Route Aircraft Duration
No Flights Yet

Route Details

Aircraft Information
Primary: Boeing 757-200SF
Backup: Not Available
Route Data
Distance: 1305nm
Sched. Duration: 3h 45m
Avg. Duration: 0h 00m (-345m)
Times Flown: 0
Recm'd Route: RUDOT LNO UN852 SPY L602 BERGI UM90 LONAM N610 RATSU ALDAN ASRUN ASRUN1H
Planned Altitude: 34,000ft
Origin Wx: ETAR 291056Z AUTO 02009KT 9999 FEW170 20/05 A3029 RMK AO2 SLP260 T02040048 FZRANO $
Dest. Wx: BIKF 291100Z 15025G37KT 9999 VCSH BKN004 OVC016 10/09 Q1002
Notes: USTRANSCOM CONTRACT FLIGHT

Financial History
Total Freight: 0lbs
Average Load: 0lbs/flt
Fuel Used: 0lbs
Avg. Fuel Used: 0lbs/flt
Fuel Expense: $0
Avg. Fuel Expense: $0
Avg. Fuel Cost: $0/lbs
Total Gross Income: $0
Pilot Pay: $0
Total Expenses: $0
Total Revenue: $0
Average Revenue: $0